Location: Killam
(52.7910°N, 111.8608°W)
Time: 09:42:35
(UTC+00:00)

Tiros 1 - All Passes

Search period start: 17 February 2026 00:00
Search period end: 27 February 2026 00:00
Orbit: 618 x 649 km, 48.4° (Epoch: 15 February)

Date Brightness Start Highest point End Pass type
(mag) Time Alt. Az. Time Alt. Az. Time Alt. Az.
17 Feb - 16:11:23 10° SSW 16:14:41 20° SSE 16:17:58 10° E daylight
17 Feb - 17:51:31 10° WSW 17:55:50 42° SSE 18:00:09 10° E daylight
17 Feb - 19:32:56 10° W 19:37:19 47° S 19:41:42 10° ESE daylight
17 Feb - 21:14:49 10° W 21:18:39 27° SSW 21:22:28 10° SSE daylight
18 Feb - 16:32:00 10° SW 16:35:58 29° SSE 16:39:55 10° E daylight
18 Feb - 18:12:54 10° WSW 18:17:19 48° S 18:21:43 10° ESE daylight
18 Feb - 19:54:31 10° W 19:58:48 40° SSW 20:03:03 10° SE daylight
18 Feb - 21:36:51 10° WSW 21:39:54 18° SW 21:42:57 10° S daylight
19 Feb - 15:13:16 10° S 15:16:15 17° SE 15:19:14 10° ESE daylight
19 Feb - 16:53:04 10° SW 16:57:21 39° SSE 17:01:37 10° E daylight
19 Feb - 18:34:25 10° WSW 18:38:49 49° S 18:43:13 10° ESE daylight
19 Feb - 20:16:12 10° W 20:20:11 30° SSW 20:24:09 10° SE daylight
19 Feb - 22:00:26 10° SW 22:01:01 10° SW 22:01:37 10° SW daylight
20 Feb - 15:33:40 10° SSW 15:37:30 26° SSE 15:41:19 10° E daylight
20 Feb - 17:14:25 10° WSW 17:18:49 47° S 17:23:11 10° E daylight
20 Feb - 18:55:58 10° W 19:00:18 43° SSW 19:04:37 10° ESE daylight
20 Feb - 20:38:07 10° W 20:41:29 20° SSW 20:44:50 10° SSE daylight
21 Feb - 14:15:16 10° S 14:17:50 15° SE 14:20:24 10° ESE daylight
21 Feb - 15:54:38 10° SW 15:58:51 36° SSE 16:03:03 10° E daylight
21 Feb - 17:35:52 10° WSW 17:40:18 49° S 17:44:43 10° ESE daylight
21 Feb - 19:17:37 10° W 19:21:43 33° SSW 19:25:48 10° SE daylight
21 Feb - 21:00:45 10° WSW 21:02:38 12° SW 21:04:31 10° SSW daylight
22 Feb - 14:35:23 10° SSW 14:39:02 23° SSE 14:42:41 10° E daylight
22 Feb - 16:15:54 10° WSW 16:20:18 45° S 16:24:40 10° E daylight
22 Feb - 17:57:24 10° W 18:01:48 45° S 18:06:09 10° ESE daylight
22 Feb - 19:39:25 10° W 19:43:02 23° SSW 19:46:38 10° SSE daylight
23 Feb - 13:17:26 10° SSE 13:19:25 13° SE 13:21:24 10° ESE visible
23 Feb - 14:56:13 10° SW 15:00:21 33° SSE 15:04:29 10° E daylight
23 Feb - 16:37:19 10° WSW 16:41:47 49° S 16:46:12 10° ESE daylight
23 Feb - 18:19:01 10° W 18:23:14 36° SSW 18:27:24 10° SE daylight
23 Feb - 20:01:43 10° WSW 20:04:14 15° SW 20:06:44 10° S daylight
24 Feb - 13:37:09 10° SSW 13:40:35 21° SSE 13:44:00 10° E visible
24 Feb - 15:17:24 10° WSW 15:21:47 43° SSE 15:26:07 10° E daylight
24 Feb - 16:58:51 10° W 17:03:16 47° S 17:07:39 10° ESE daylight
24 Feb - 18:40:46 10° W 18:44:34 26° SSW 18:48:21 10° SSE daylight
25 Feb - 12:20:05 10° SSE 12:21:00 11° SE 12:21:56 10° SE visible
25 Feb - 13:57:49 10° SW 14:01:52 30° SSE 14:05:53 10° E daylight
25 Feb - 15:38:47 10° WSW 15:43:15 49° S 15:47:40 10° ESE daylight
25 Feb - 17:20:26 10° W 17:24:43 39° SSW 17:28:58 10° SE daylight
25 Feb - 19:02:50 10° WSW 19:05:48 17° SW 19:08:45 10° S daylight
26 Feb - 12:38:58 10° S 12:42:07 18° SE 12:45:16 10° ESE visible
26 Feb - 14:18:54 10° SW 14:23:15 40° SSE 14:27:34 10° E daylight
26 Feb - 16:00:17 10° WSW 16:04:44 49° S 16:09:09 10° ESE daylight
26 Feb - 17:42:07 10° W 17:46:05 29° SSW 17:50:02 10° SE daylight
